Tracking 28052 objects as of 25-Sep-2023
HD Live streaming from Space Station
objects crossing your sky now

STARLINK-5332

Track STARLINK-5332 now!
10-day predictions
STARLINK-5332 is classified as:


NORAD ID: 55285
Int'l Code: 2023-010S
Perigee: 577.1 km
Apogee: 581.3 km
Inclination: 70.0 °
Period: 96.1 minutes
Semi major axis: 6950 km
RCS: Unknown
Launch date: January 19, 2023
Source: United States (US)
Launch site: AIR FORCE WESTERN TEST RANGE (AFWTR)
Your satellite tracking list
Your tracking list is empty




NASA's NSSDC Master Catalog

Two Line Element Set (TLE):
1 55285U 23010S   23267.56299399  .00000209  00000-0  25299-4 0  9995
2 55285  69.9987 106.3362 0003074 270.1873  89.8933 14.98325148 40265
Source of the keplerian elements: AFSPC